Location: Allison's Woods
(35.8809°N, 80.8140°W)
Time: 07:54:02
(UTC-04:00)

Iridium 39 - Visible Passes

Search period start: 23 July 2014 00:00
Search period end: 02 August 2014 00:00
Orbit: 776 x 779 km, 86.4° (Epoch: 22 July)

Date Brightness Start Highest point End Pass type
(mag) Time Alt. Az. Time Alt. Az. Time Alt. Az.
23 Jul 6.6 00:09:25 10° N 00:13:24 54° NNW 00:13:24 54° NNW visible
23 Jul 6.7 23:36:01 10° N 23:40:00 44° NE 23:40:00 44° NE visible
24 Jul 8.4 01:18:23 10° NW 01:20:28 15° WNW 01:20:28 15° WNW visible
24 Jul 7.4 23:03:02 10° NNE 23:06:36 26° ENE 23:06:36 26° ENE visible
25 Jul 7.7 00:43:38 10° NNW 00:47:04 27° WNW 00:47:04 27° WNW visible
25 Jul 8.0 22:30:54 10° NE 22:33:12 14° ENE 22:33:12 14° ENE visible
26 Jul 6.8 00:09:36 10° NNW 00:13:40 47° NW 00:13:40 47° NW visible
26 Jul 6.4 23:36:00 10° N 23:40:17 60° NNE 23:40:17 60° NNE visible
27 Jul 6.8 23:02:45 10° NNE 23:06:55 38° ENE 23:06:55 38° ENE visible
28 Jul 8.1 00:44:19 10° NW 00:47:23 19° WNW 00:47:23 19° WNW visible
28 Jul 7.5 22:30:00 10° NNE 22:33:32 21° ENE 22:33:32 21° ENE visible
29 Jul 7.3 00:09:56 10° NNW 00:14:01 35° WNW 00:14:01 35° WNW visible
29 Jul 8.1 21:58:53 10° ENE 22:00:03 11° ENE 22:00:10 11° ENE visible
29 Jul 6.3 23:36:06 10° N 23:40:39 64° NW 23:40:39 64° NW visible
30 Jul 6.2 23:02:37 10° N 23:07:18 57° ENE 23:07:18 57° ENE visible
31 Jul 8.5 00:45:31 10° NW 00:47:46 13° WNW 00:47:46 13° WNW visible
31 Jul 7.0 22:29:32 10° NNE 22:33:57 31° ENE 22:33:57 31° ENE visible
01 Aug 7.7 00:10:27 10° NNW 00:14:25 25° W 00:14:25 25° W visible
01 Aug 7.7 21:57:08 10° NE 22:00:21 16° ENE 22:00:37 16° E visible
01 Aug 6.7 23:36:19 10° NNW 23:41:05 48° WNW 23:41:05 48° WNW visible
